Overview Statistics Trail Chart Weather Telemetry Raw packets
 

This is the latest recevied weather packets stored in our database for station/object FW0690. If no packets are shown the sender has not sent any weather packets the latest 10 day(s).

<< 4 5 6 7 8 9 10 >>
Time Temp. Humidity Pressure Rain* Wind** Luminosity Snow
1788521420 33.89° C 25% 1015 hPa - - 26 W/m² -
1788521060 34.44° C 25% 1015.1 hPa - - 26 W/m² -
1788520700 34.44° C 25% 1015.1 hPa - - 26 W/m² -
1788520340 34.44° C 24% 1015.1 hPa - - 27 W/m² -
1788519980 34.44° C 24% 1015.2 hPa - - 27 W/m² -
1788519620 34.44° C 24% 1015.2 hPa - - 26 W/m² -
1788519260 35° C 25% 1015.3 hPa - - 27 W/m² -
1788518900 35° C 25% 1015.4 hPa - - 54 W/m² -
1788518540 34.44° C 26% 1015.4 hPa - - 211 W/m² -
1788518180 33.89° C 27% 1015.3 hPa - - 211 W/m² -
1788517835 34.44° C 28% 1015.3 hPa - - 211 W/m² -
1788517460 33.89° C 29% 1015.4 hPa - - 211 W/m² -
1788517100 33.33° C 29% 1015.3 hPa - - 211 W/m² -
1788516740 32.78° C 29% 1015.4 hPa - - 211 W/m² -
1788516386 32.78° C 29% 1015.5 hPa - - 211 W/m² -
1788516020 33.33° C 30% 1015.5 hPa - - 37 W/m² -
1788515660 32.22° C 31% 1015.5 hPa - - 27 W/m² -
1788515300 31.67° C 31% 1015.6 hPa - - 216 W/m² -
1788514940 31.11° C 31% 1015.6 hPa - - 242 W/m² -
1788514580 31.11° C 31% 1015.7 hPa - - 233 W/m² -
1788514220 31.11° C 32% 1015.7 hPa - - 202 W/m² -
1788513860 31.11° C 32% 1015.8 hPa - - 187 W/m² -
1788513500 30.56° C 33% 1015.9 hPa - - 158 W/m² -
1788513140 30.56° C 34% 1015.8 hPa - - 89 W/m² -
1788512780 28.89° C 35% 1016 hPa - - 65 W/m² -

* Rain since midnight (hover to see other rain measurements)
** Current wind speed in m/s (hover to see current wind gust speed)